Weather History for KGRB - October, 2012

Change the Weather History Date:

Saturday, October 20, 2012

  Actual Average Record
Temperature  
Mean Temperature 49 °F 46 °F  
Max Temperature 59 °F 55 °F 81 °F (1953)
Min Temperature 38 °F 37 °F 20 °F (1895)
Degree Days  
Heating Degree Days 16 19  
Month to date heating degree days 341 321  
Since 1 July heating degree days 583 591  
Cooling Degree Days 0 0  
Month to date cooling degree days 0 0  
Year to date cooling degree days 786 395  
Moisture  
Dew Point 42 °F    
Average Humidity 72    
Maximum Humidity 93    
Minimum Humidity 51    
Precipitation  
Precipitation T in 0.08 in 0.89 in (1965)
Month to date precipitation 4.40 1.62  
Year to date precipitation 27.42 25.06  
Snow  
Snow 0.00 in 0.00 in 2.90 in (1896)
Month to date snowfall 0.0 0.0  
Since 1 July snowfall 0.0 0.0  
Since 1 September snowfall 0.0 0.0  
Snow Depth 0.00 in    
Sea Level Pressure  
Sea Level Pressure 29.74 in    
Wind  
Wind Speed 4 mph (NW)    
Max Wind Speed 9 mph    
Max Gust Speed 12 mph    
Visibility 10 miles    
Events      
T = Trace of Precipitation, MM = Missing Value Source: NWS Daily Summary

Daily Weather History Graph

Daily Weather History Graph

Search for Another Location

Airport or City:

Trip Planner

Search our weather history database for the weather conditions in past years. The results will help you decide how hot, cold, wet, or windy it might be!

Date:

Astronomy

Oct. 20, 2012 Rise Set
Actual Time 7:14 AM CDT 5:59 PM CDT
Civil Twilight 6:45 AM CDT 6:28 PM CDT
Nautical Twilight 6:11 AM CDT 7:02 PM CDT
Astronomical Twilight 5:37 AM CDT 7:36 PM CDT
Moon 12:57 PM CDT (10/20) 10:38 PM CDT (10/20)
Length of Visible Light 11h 43m
Length of Day
10h 44m
Waxing Crescent, 34% of the Moon is Illuminated
Oct 20
Waxing Crescent
Oct 21
First Quarter
Oct 29
Full
Nov 6
Last Quarter
Nov 13
New

Hourly Weather History & Observations

Time (CDT) Temp. Windchill Dew Point Humidity Pressure Visibility Wind Dir Wind Speed Gust Speed Precip Events Conditions
12:32 AM 46.4 °F 42.4 °F 42.8 °F 87% 29.62 in 10.0 mi NW 8.1 mph - N/A   Overcast
12:53 AM 46.9 °F - 44.1 °F 90% 29.63 in 10.0 mi NW 5.8 mph - 0.00 in   Overcast
1:16 AM 46.4 °F 42.9 °F 42.8 °F 87% 29.62 in 10.0 mi NNW 6.9 mph - 0.00 in   Overcast
1:53 AM 46.9 °F - 43.0 °F 86% 29.64 in 10.0 mi WNW 4.6 mph - 0.00 in   Overcast
2:28 AM 46.4 °F 43.5 °F 42.8 °F 87% 29.64 in 10.0 mi WNW 5.8 mph - N/A   Overcast
2:53 AM 46.0 °F 42.5 °F 43.0 °F 89% 29.65 in 10.0 mi NW 6.9 mph - N/A   Overcast
3:07 AM 46.4 °F 43.5 °F 42.8 °F 87% 29.64 in 10.0 mi NW 5.8 mph - N/A   Overcast
3:53 AM 46.0 °F 43.1 °F 43.0 °F 89% 29.66 in 10.0 mi NW 5.8 mph - N/A   Overcast
4:14 AM 46.4 °F 43.5 °F 42.8 °F 87% 29.65 in 10.0 mi NW 5.8 mph - N/A   Overcast
4:53 AM 46.4 °F 43.5 °F 42.8 °F 87% 29.66 in 10.0 mi NNW 5.8 mph - N/A   Overcast
5:07 AM 46.4 °F 44.3 °F 42.8 °F 87% 29.66 in 10.0 mi NNW 4.6 mph - N/A   Overcast
5:28 AM 46.4 °F 43.5 °F 42.8 °F 87% 29.67 in 10.0 mi NW 5.8 mph - N/A   Overcast
5:53 AM 46.9 °F - 43.0 °F 86% 29.68 in 10.0 mi NW 5.8 mph - N/A   Overcast
6:21 AM 46.4 °F 44.3 °F 42.8 °F 87% 29.68 in 10.0 mi NNW 4.6 mph - N/A   Overcast
6:33 AM 46.4 °F 45.2 °F 42.8 °F 87% 29.68 in 10.0 mi NW 3.5 mph - N/A   Overcast
6:53 AM 46.9 °F - 43.0 °F 86% 29.70 in 10.0 mi NNW 3.5 mph - N/A   Overcast
7:53 AM 46.0 °F 43.1 °F 43.0 °F 89% 29.73 in 10.0 mi WNW 5.8 mph - N/A   Overcast
8:35 AM 46.4 °F 43.5 °F 44.6 °F 93% 29.73 in 10.0 mi NW 5.8 mph - N/A   Overcast
8:53 AM 48.0 °F - 44.1 °F 86% 29.74 in 10.0 mi NW 5.8 mph - N/A   Overcast
9:39 AM 50.0 °F - 44.6 °F 82% 29.74 in 10.0 mi North 4.6 mph - N/A   Overcast
9:53 AM 50.0 °F - 44.1 °F 80% 29.75 in 10.0 mi North 9.2 mph - N/A   Overcast
10:15 AM 51.8 °F - 44.6 °F 76% 29.74 in 10.0 mi North 5.8 mph - N/A   Mostly Cloudy
10:22 AM 51.8 °F - 44.6 °F 76% 29.75 in 10.0 mi North 6.9 mph - N/A   Scattered Clouds
10:53 AM 51.1 °F - 44.1 °F 77% 29.77 in 10.0 mi NE 5.8 mph - N/A   Mostly Cloudy
11:53 AM 53.1 °F - 42.1 °F 66% 29.77 in 10.0 mi Calm Calm - N/A   Mostly Cloudy
12:12 PM 51.8 °F - 42.8 °F 71% 29.76 in 10.0 mi West 4.6 mph - N/A   Scattered Clouds
12:53 PM 55.9 °F - 43.0 °F 62% 29.78 in 10.0 mi Variable 5.8 mph - N/A   Mostly Cloudy
1:53 PM 54.0 °F - 41.0 °F 62% 29.77 in 10.0 mi West 3.5 mph - N/A   Mostly Cloudy
2:53 PM 57.9 °F - 41.0 °F 53% 29.78 in 10.0 mi West 6.9 mph - N/A   Mostly Cloudy
3:53 PM 57.0 °F - 39.9 °F 53% 29.78 in 10.0 mi Calm Calm - N/A   Mostly Cloudy
4:53 PM 55.0 °F - 42.1 °F 62% 29.80 in 10.0 mi West 5.8 mph - N/A   Overcast
5:53 PM 54.0 °F - 42.1 °F 64% 29.81 in 10.0 mi West 5.8 mph - N/A   Overcast
6:53 PM 52.0 °F - 42.1 °F 69% 29.84 in 10.0 mi WSW 4.6 mph - N/A   Mostly Cloudy
7:53 PM 48.9 °F - 41.0 °F 74% 29.84 in 10.0 mi SW 3.5 mph - N/A   Scattered Clouds
8:53 PM 46.9 °F - 39.9 °F 77% 29.86 in 10.0 mi SSW 4.6 mph - N/A   Clear
9:53 PM 44.1 °F - 39.9 °F 85% 29.86 in 10.0 mi Calm Calm - N/A   Clear
10:53 PM 39.9 °F 37.8 °F 37.0 °F 89% 29.89 in 8.0 mi SW 3.5 mph - N/A   Clear
11:53 PM 39.0 °F - 37.9 °F 96% 29.90 in 6.0 mi Calm Calm - N/A   Clear